TimeCDT,TemperatureF,Dew PointF,Humidity,Sea Level PressureIn,VisibilityMPH,Wind Direction,Wind SpeedMPH,Gust SpeedMPH,PrecipitationIn,Events,Conditions,WindDirDegrees,DateUTC
12:53 AM,53.1,48.9,86,29.98,10.0,Calm,Calm,-,N/A,,Clear,0,2013-05-08 05:53:00
1:53 AM,52.0,46.9,83,29.97,10.0,Calm,Calm,-,N/A,,Clear,0,2013-05-08 06:53:00
2:53 AM,52.0,48.9,89,29.97,10.0,Calm,Calm,-,N/A,,Overcast,0,2013-05-08 07:53:00
3:53 AM,55.0,50.0,83,29.96,10.0,Calm,Calm,-,N/A,,Overcast,0,2013-05-08 08:53:00
4:53 AM,54.0,52.0,93,29.97,10.0,Calm,Calm,-,N/A,,Mostly Cloudy,0,2013-05-08 09:53:00
5:53 AM,55.0,52.0,89,29.97,10.0,SSE,4.6,-,N/A,,Mostly Cloudy,160,2013-05-08 10:53:00
6:53 AM,57.0,53.1,87,29.97,10.0,South,5.8,-,0.00,,Overcast,170,2013-05-08 11:53:00
7:53 AM,59.0,57.0,93,29.98,10.0,Calm,Calm,-,0.00,Rain,Light Rain,0,2013-05-08 12:53:00
8:53 AM,61.0,57.0,87,29.98,10.0,South,4.6,-,0.00,,Overcast,180,2013-05-08 13:53:00
9:53 AM,66.0,57.0,73,29.98,10.0,South,8.1,-,N/A,,Scattered Clouds,180,2013-05-08 14:53:00
10:53 AM,70.0,57.0,63,29.98,10.0,SSW,17.3,-,0.01,,Partly Cloudy,200,2013-05-08 15:53:00
11:53 AM,73.0,55.9,55,29.97,10.0,South,16.1,24.2,N/A,,Scattered Clouds,180,2013-05-08 16:53:00
12:53 PM,72.0,55.0,55,29.96,10.0,South,12.7,-,N/A,,Mostly Cloudy,170,2013-05-08 17:53:00
1:53 PM,75.0,55.0,50,29.95,10.0,South,11.5,-,N/A,,Clear,170,2013-05-08 18:53:00
2:53 PM,73.9,55.9,53,29.94,10.0,South,16.1,-,N/A,,Mostly Cloudy,190,2013-05-08 19:53:00
3:53 PM,73.9,55.9,53,29.93,10.0,South,11.5,-,N/A,,Overcast,180,2013-05-08 20:53:00
4:53 PM,75.9,55.9,50,29.90,10.0,SE,11.5,-,N/A,,Mostly Cloudy,140,2013-05-08 21:53:00
5:53 PM,75.0,55.9,51,29.90,10.0,SSE,12.7,-,N/A,,Mostly Cloudy,160,2013-05-08 22:53:00
6:53 PM,73.9,55.9,53,29.88,10.0,South,10.4,-,N/A,,Mostly Cloudy,190,2013-05-08 23:53:00
7:53 PM,72.0,57.0,59,29.88,10.0,South,10.4,-,N/A,,Mostly Cloudy,180,2013-05-09 00:53:00
8:53 PM,68.0,57.9,70,29.89,10.0,South,6.9,-,N/A,,Mostly Cloudy,170,2013-05-09 01:53:00
9:53 PM,66.0,57.9,75,29.90,10.0,SSE,6.9,-,N/A,,Mostly Cloudy,160,2013-05-09 02:53:00
10:53 PM,66.9,57.9,73,29.88,10.0,SE,5.8,-,N/A,,Overcast,140,2013-05-09 03:53:00
11:53 PM,66.9,57.0,70,29.90,10.0,South,17.3,-,0.00,Rain-Thunderstorm,Light Rain,170,2013-05-09 04:53:00